Time,TemperatureF,DewpointF,PressureIn,WindDirection,WindDirectionDegrees,WindSpeedMPH,WindSpeedGustMPH,Humidity,HourlyPrecipIn,Conditions,Clouds,dailyrainin,SolarRadiationWatts/m^2,SoftwareType,DateUTC
2013-05-13 00:00:00,69.1,60.5,30.11,East,90,1.0,3.0,74,0.00,,,0.00,0.00,VWS V14.00,2013-05-13 05:00:00,
2013-05-13 00:15:00,68.9,60.7,30.11,East,90,0.0,3.0,75,0.00,,,0.00,0.00,VWS V14.00,2013-05-13 05:15:00,
2013-05-13 00:30:00,68.6,60.7,30.11,East,90,0.0,1.0,76,0.00,,,0.00,0.00,VWS V14.00,2013-05-13 05:30:00,
2013-05-13 00:45:00,68.3,60.8,30.12,East,90,0.0,0.0,77,0.00,,,0.00,0.00,VWS V14.00,2013-05-13 05:45:00,
2013-05-13 01:00:00,68.1,61.3,30.12,East,90,0.0,0.0,79,0.00,,,0.00,0.00,VWS V14.00,2013-05-13 06:00:00,
2013-05-13 01:15:00,67.9,61.5,30.12,East,90,0.0,0.0,80,0.00,,,0.00,0.00,VWS V14.00,2013-05-13 06:15:00,
2013-05-13 01:30:00,67.8,61.8,30.11,East,90,0.0,2.0,81,0.00,,,0.00,0.00,VWS V14.00,2013-05-13 06:30:00,
2013-05-13 01:45:00,67.9,61.9,30.11,East,90,0.0,2.0,81,0.00,,,0.00,0.00,VWS V14.00,2013-05-13 06:45:00,
2013-05-13 02:00:00,68.1,62.1,30.11,East,90,0.0,2.0,81,0.00,,,0.00,0.00,VWS V14.00,2013-05-13 07:00:00,
2013-05-13 02:15:00,68.0,62.0,30.11,East,90,0.0,0.0,81,0.00,,,0.00,0.00,VWS V14.00,2013-05-13 07:15:00,
2013-05-13 02:30:00,67.8,61.8,30.11,East,90,0.0,0.0,81,0.00,,,0.00,0.00,VWS V14.00,2013-05-13 07:30:00,
2013-05-13 02:45:00,67.4,61.4,30.11,East,90,0.0,0.0,81,0.00,,,0.00,0.00,VWS V14.00,2013-05-13 07:45:00,
2013-05-13 03:00:00,66.6,61.3,30.12,East,90,0.0,3.0,83,0.00,,,0.00,0.00,VWS V14.00,2013-05-13 08:00:00,
2013-05-13 03:15:00,65.8,61.2,30.12,East,90,0.0,2.0,85,0.00,,,0.00,0.00,VWS V14.00,2013-05-13 08:15:00,
2013-05-13 03:35:00,65.0,60.7,30.12,East,90,0.0,1.0,86,0.00,,,0.00,0.00,VWS V14.00,2013-05-13 08:35:00,
2013-05-13 03:45:00,64.2,59.9,30.12,East,95,0.0,2.0,86,0.00,,,0.00,0.00,VWS V14.00,2013-05-13 08:45:00,
2013-05-13 04:00:00,63.5,59.2,30.12,NNW,335,0.0,3.0,86,0.00,,,0.00,0.00,VWS V14.00,2013-05-13 09:00:00,
2013-05-13 04:15:00,63.0,59.1,30.13,NNW,335,0.0,1.0,87,0.00,,,0.00,0.00,VWS V14.00,2013-05-13 09:15:00,
2013-05-13 04:30:00,62.6,58.7,30.12,NNW,335,0.0,0.0,87,0.00,,,0.00,0.00,VWS V14.00,2013-05-13 09:30:00,
2013-05-13 04:45:00,62.2,58.6,30.12,North,0,0.0,0.0,88,0.00,,,0.00,0.00,VWS V14.00,2013-05-13 09:45:00,
2013-05-13 05:00:00,62.0,58.4,30.13,NNW,338,0.0,4.0,88,0.00,,,0.00,0.00,VWS V14.00,2013-05-13 10:00:00,
2013-05-13 05:15:00,62.3,59.0,30.13,North,0,1.0,4.0,89,0.00,,,0.00,0.00,VWS V14.00,2013-05-13 10:15:00,
2013-05-13 05:30:00,62.8,59.5,30.14,North,0,1.0,4.0,89,0.00,,,0.00,0.00,VWS V14.00,2013-05-13 10:30:00,
2013-05-13 05:45:00,63.1,59.5,30.13,North,0,1.0,4.0,88,0.00,,,0.00,0.00,VWS V14.00,2013-05-13 10:45:00,
2013-05-13 06:00:00,63.4,59.5,30.13,North,0,0.0,2.0,87,0.00,,,0.00,0.00,VWS V14.00,2013-05-13 11:00:00,
2013-05-13 06:15:00,64.1,59.5,30.14,North,0,0.0,3.0,85,0.00,,,0.00,0.00,VWS V14.00,2013-05-13 11:15:00,
2013-05-13 06:30:00,63.9,59.3,30.14,North,0,0.0,2.0,85,0.00,,,0.00,0.00,VWS V14.00,2013-05-13 11:30:00,
2013-05-13 06:45:00,63.6,59.0,30.15,North,0,0.0,1.0,85,0.00,,,0.00,3.00,VWS V14.00,2013-05-13 11:45:00,
2013-05-13 07:00:00,63.5,59.2,30.15,North,0,0.0,1.0,86,0.00,,,0.00,13.00,VWS V14.00,2013-05-13 12:00:00,
2013-05-13 07:15:00,63.5,59.2,30.16,North,0,0.0,0.0,86,0.00,,,0.00,29.00,VWS V14.00,2013-05-13 12:15:00,
2013-05-13 07:30:00,64.5,60.5,30.16,North,0,0.0,2.0,87,0.00,,,0.00,99.00,VWS V14.00,2013-05-13 12:30:00,
2013-05-13 07:45:00,66.1,61.1,30.17,North,0,1.0,3.0,84,0.00,,,0.00,166.00,VWS V14.00,2013-05-13 12:45:00,
2013-05-13 08:00:00,67.9,61.9,30.18,ENE,68,1.0,4.0,81,0.00,,,0.00,228.00,VWS V14.00,2013-05-13 13:00:00,
2013-05-13 08:15:00,69.0,61.9,30.18,North,0,1.0,5.0,78,0.00,,,0.00,286.00,VWS V14.00,2013-05-13 13:15:00,
2013-05-13 08:30:00,70.1,62.6,30.18,NE,45,1.0,6.0,77,0.00,,,0.00,345.00,VWS V14.00,2013-05-13 13:30:00,
2013-05-13 08:45:00,71.5,63.5,30.19,East,90,1.0,4.0,76,0.00,,,0.00,400.00,VWS V14.00,2013-05-13 13:45:00,
2013-05-13 09:00:00,72.9,64.1,30.19,ENE,68,2.0,6.0,74,0.00,,,0.00,455.00,VWS V14.00,2013-05-13 14:00:00,
2013-05-13 09:15:00,74.0,65.2,30.20,NE,45,2.0,5.0,74,0.00,,,0.00,506.00,VWS V14.00,2013-05-13 14:15:00,
2013-05-13 09:30:00,74.8,66.0,30.20,ESE,112,2.0,5.0,74,0.00,,,0.00,557.00,VWS V14.00,2013-05-13 14:30:00,
2013-05-13 10:00:00,76.2,66.5,30.20,ESE,112,2.0,6.0,72,0.00,,,0.00,657.00,VWS V14.00,2013-05-13 15:00:00,
2013-05-13 10:15:00,76.7,64.9,30.20,East,90,2.0,7.0,67,0.00,,,0.00,708.00,VWS V14.00,2013-05-13 15:15:00,
2013-05-13 10:30:00,77.6,65.8,30.20,ESE,112,2.0,7.0,67,0.00,,,0.00,757.00,VWS V14.00,2013-05-13 15:30:00,
2013-05-13 10:45:00,78.7,66.0,30.20,ESE,112,2.0,7.0,65,0.00,,,0.00,800.00,VWS V14.00,2013-05-13 15:45:00,
2013-05-13 11:00:00,78.8,65.6,30.20,ESE,112,2.0,6.0,64,0.00,,,0.00,837.00,VWS V14.00,2013-05-13 16:00:00,
2013-05-13 11:15:00,79.8,65.2,30.20,East,90,2.0,6.0,61,0.00,,,0.00,880.00,VWS V14.00,2013-05-13 16:15:00,
2013-05-13 11:30:00,80.0,64.4,30.20,East,90,3.0,7.0,59,0.00,,,0.00,921.00,VWS V14.00,2013-05-13 16:30:00,
2013-05-13 11:45:00,79.8,64.7,30.20,East,90,2.0,7.0,60,0.00,,,0.00,840.00,VWS V14.00,2013-05-13 16:45:00,
2013-05-13 12:00:00,80.1,64.5,30.20,East,90,2.0,9.0,59,0.00,,,0.00,660.00,VWS V14.00,2013-05-13 17:00:00,
2013-05-13 12:15:00,80.2,66.9,30.20,South,180,3.0,10.0,64,0.00,,,0.00,1052.00,VWS V14.00,2013-05-13 17:15:00,
2013-05-13 12:30:00,79.9,67.1,30.20,South,180,3.0,10.0,65,0.00,,,0.00,895.00,VWS V14.00,2013-05-13 17:30:00,
2013-05-13 12:45:00,80.0,67.2,30.19,SSE,158,4.0,9.0,65,0.00,,,0.00,1060.00,VWS V14.00,2013-05-13 17:45:00,
2013-05-13 13:00:00,80.3,67.0,30.19,South,180,4.0,11.0,64,0.00,,,0.00,1032.00,VWS V14.00,2013-05-13 18:00:00,
2013-05-13 13:15:00,80.4,67.1,30.19,SSE,158,4.0,11.0,64,0.00,,,0.00,1036.00,VWS V14.00,2013-05-13 18:15:00,
2013-05-13 13:30:00,80.4,67.1,30.19,SSE,158,4.0,11.0,64,0.00,,,0.00,1024.00,VWS V14.00,2013-05-13 18:30:00,
2013-05-13 13:45:00,80.1,66.8,30.19,South,180,4.0,12.0,64,0.00,,,0.00,1000.00,VWS V14.00,2013-05-13 18:45:00,
2013-05-13 14:00:00,80.5,68.1,30.18,East,90,4.0,12.0,66,0.00,,,0.00,982.00,VWS V14.00,2013-05-13 19:00:00,
2013-05-13 14:15:00,79.8,66.6,30.18,South,180,4.0,10.0,64,0.00,,,0.00,967.00,VWS V14.00,2013-05-13 19:15:00,
2013-05-13 14:30:00,80.0,67.2,30.18,ESE,112,4.0,11.0,65,0.00,,,0.00,954.00,VWS V14.00,2013-05-13 19:30:00,
2013-05-13 14:45:00,79.6,66.4,30.17,ESE,112,5.0,15.0,64,0.00,,,0.00,931.00,VWS V14.00,2013-05-13 19:45:00,
2013-05-13 15:00:00,79.7,66.5,30.17,South,180,4.0,10.0,64,0.00,,,0.00,909.00,VWS V14.00,2013-05-13 20:00:00,
2013-05-13 15:15:00,79.3,66.5,30.17,ESE,112,4.0,12.0,65,0.00,,,0.00,881.00,VWS V14.00,2013-05-13 20:15:00,
2013-05-13 15:30:00,79.5,66.3,30.16,East,90,4.0,12.0,64,0.00,,,0.00,853.00,VWS V14.00,2013-05-13 20:30:00,
2013-05-13 15:45:00,79.9,66.2,30.15,ESE,112,4.0,11.0,63,0.00,,,0.00,812.00,VWS V14.00,2013-05-13 20:45:00,
2013-05-13 16:00:00,79.8,65.6,30.15,East,90,4.0,11.0,62,0.00,,,0.00,773.00,VWS V14.00,2013-05-13 21:00:00,
2013-05-13 16:15:00,79.5,66.3,30.14,ESE,112,4.0,14.0,64,0.00,,,0.00,730.00,VWS V14.00,2013-05-13 21:15:00,
2013-05-13 16:30:00,79.0,66.2,30.14,East,90,4.0,10.0,65,0.00,,,0.00,687.00,VWS V14.00,2013-05-13 21:30:00,
2013-05-13 16:45:00,78.7,65.5,30.14,ESE,112,4.0,12.0,64,0.00,,,0.00,643.00,VWS V14.00,2013-05-13 21:45:00,
2013-05-13 17:00:00,78.5,65.3,30.13,East,90,4.0,11.0,64,0.00,,,0.00,594.00,VWS V14.00,2013-05-13 22:00:00,
2013-05-13 17:15:00,78.3,65.6,30.12,ESE,112,4.0,11.0,65,0.00,,,0.00,546.00,VWS V14.00,2013-05-13 22:15:00,
2013-05-13 17:30:00,77.9,65.2,30.13,East,90,4.0,10.0,65,0.00,,,0.00,495.00,VWS V14.00,2013-05-13 22:30:00,
2013-05-13 17:45:00,77.8,66.4,30.14,ESE,112,3.0,10.0,68,0.00,,,0.00,443.00,VWS V14.00,2013-05-13 22:45:00,
2013-05-13 18:00:00,76.9,65.5,30.13,ESE,112,4.0,10.0,68,0.00,,,0.00,337.00,VWS V14.00,2013-05-13 23:00:00,
2013-05-13 18:15:00,76.0,65.9,30.14,SSE,160,3.0,4.0,71,0.00,,,0.00,216.00,VWS V14.00,2013-05-13 23:15:00,
2013-05-13 18:30:00,75.1,65.9,30.13,SSE,158,3.0,7.0,73,0.00,,,0.00,168.00,VWS V14.00,2013-05-13 23:30:00,
2013-05-13 18:45:00,74.8,66.0,30.13,ESE,112,3.0,7.0,74,0.00,,,0.00,173.00,VWS V14.00,2013-05-13 23:45:00,
2013-05-13 19:00:00,74.7,65.9,30.13,East,90,3.0,7.0,74,0.00,,,0.00,141.00,VWS V14.00,2013-05-14 00:00:00,
2013-05-13 19:15:00,74.3,65.9,30.13,SE,135,2.0,9.0,75,0.00,,,0.00,68.00,VWS V14.00,2013-05-14 00:15:00,
2013-05-13 19:30:00,73.7,65.7,30.13,SE,135,3.0,9.0,76,0.00,,,0.00,58.00,VWS V14.00,2013-05-14 00:30:00,
2013-05-13 19:45:00,73.1,65.1,30.14,ESE,112,2.0,7.0,76,0.00,,,0.00,33.00,VWS V14.00,2013-05-14 00:45:00,
2013-05-13 20:00:00,72.6,65.3,30.14,ESE,112,2.0,5.0,78,0.00,,,0.00,12.00,VWS V14.00,2013-05-14 01:00:00,
2013-05-13 20:15:00,72.1,65.2,30.14,South,180,1.0,6.0,79,0.00,,,0.00,2.00,VWS V14.00,2013-05-14 01:15:00,
2013-05-13 20:30:00,71.8,65.3,30.14,ESE,112,1.0,5.0,80,0.00,,,0.00,0.00,VWS V14.00,2013-05-14 01:30:00,
2013-05-13 20:45:00,71.6,64.8,30.14,ESE,112,2.0,7.0,79,0.00,,,0.00,0.00,VWS V14.00,2013-05-14 01:45:00,
2013-05-13 21:00:00,71.6,64.8,30.15,East,90,2.0,7.0,79,0.00,,,0.00,0.00,VWS V14.00,2013-05-14 02:00:00,
2013-05-13 21:15:00,71.6,65.1,30.14,East,90,2.0,6.0,80,0.00,,,0.00,0.00,VWS V14.00,2013-05-14 02:15:00,
2013-05-13 21:30:00,71.4,65.3,30.14,ESE,112,3.0,6.0,81,0.00,,,0.00,0.00,VWS V14.00,2013-05-14 02:30:00,
2013-05-13 21:45:00,70.7,64.9,30.15,East,90,2.0,5.0,82,0.00,,,0.00,0.00,VWS V14.00,2013-05-14 02:45:00,
2013-05-13 22:00:00,70.5,65.1,30.16,East,90,1.0,4.0,83,0.00,,,0.00,0.00,VWS V14.00,2013-05-14 03:00:00,
2013-05-13 22:15:00,70.5,65.1,30.16,ESE,112,2.0,5.0,83,0.00,,,0.00,0.00,VWS V14.00,2013-05-14 03:15:00,
2013-05-13 22:30:00,70.4,65.0,30.17,ESE,112,2.0,4.0,83,0.00,,,0.00,0.00,VWS V14.00,2013-05-14 03:30:00,
2013-05-13 22:45:00,70.0,64.9,30.16,East,90,1.0,4.0,84,0.00,,,0.00,0.00,VWS V14.00,2013-05-14 03:45:00,
2013-05-13 23:00:00,69.6,64.6,30.16,East,90,2.0,4.0,84,0.00,,,0.00,0.00,VWS V14.00,2013-05-14 04:00:00,
2013-05-13 23:15:00,69.5,64.8,30.17,East,90,2.0,5.0,85,0.00,,,0.00,0.00,VWS V14.00,2013-05-14 04:15:00,
2013-05-13 23:30:00,69.5,64.8,30.18,East,90,1.0,4.0,85,0.00,,,0.00,0.00,VWS V14.00,2013-05-14 04:30:00,
2013-05-13 23:45:00,69.4,65.0,30.18,ESE,112,1.0,3.0,86,0.00,,,0.00,0.00,VWS V14.00,2013-05-14 04:45:00,